When you browse on this site, cookies collect data to enhance your experience and personalize the content and advertising you see.
Visit our Privacy Policy to learn more. By continuing to use the site, you agree to this use of cookies and data.
  • In Schweiz
  • Länderverzeichnis
  • Für 7 Tage
  • Wassertemperatur
  • Wetterkarte
  • Widgets
  • user-avatar
    Anmelden

    Stündliche Wetter Kurcy

    Heute, 26 August, Montag

    Zeit Temperatur Niederschläge Wind Luftdruck Luftfeuchtigkeit
    00:00 +13°C° 0 mm 2 m/S 756 mmHg 88%
    01:00 +13°C° 0 mm 2 m/S 757 mmHg 89%
    02:00 +12°C° 0 mm 2 m/S 757 mmHg 90%
    03:00 +12°C° 0 mm 1 m/S 757 mmHg 90%
    04:00 +12°C° 0 mm 1 m/S 757 mmHg 91%
    05:00 +12°C° 0 mm 1 m/S 757 mmHg 91%
    06:00 +11°C° 0 mm 1 m/S 757 mmHg 92%
    07:00 +13°C° 0 mm 1 m/S 757 mmHg 85%
    08:00 +14°C° 0 mm 1 m/S 758 mmHg 79%
    09:00 +16°C° 0 mm 1 m/S 758 mmHg 73%
    10:00 +18°C° 0 mm 1 m/S 758 mmHg 68%
    11:00 +18°C° 0 mm 0 m/S 757 mmHg 63%
    12:00 +19°C° 0 mm 0 m/S 757 mmHg 58%
    13:00 +21°C° 0 mm 1 m/S 757 mmHg 56%
    14:00 +22°C° 0 mm 1 m/S 757 mmHg 54%
    15:00 +21°C° 0 mm 2 m/S 756 mmHg 51%
    16:00 +21°C° 0 mm 2 m/S 756 mmHg 55%
    17:00 +21°C° 0 mm 2 m/S 755 mmHg 58%
    18:00 +21°C° 0 mm 1 m/S 755 mmHg 62%
    19:00 +20°C° 0 mm 1 m/S 755 mmHg 66%
    20:00 +19°C° 0 mm 1 m/S 755 mmHg 70%
    21:00 +16°C° 0 mm 1 m/S 754 mmHg 74%
    22:00 +16°C° 0 mm 2 m/S 754 mmHg 75%
    23:00 +16°C° 0 mm 2 m/S 754 mmHg 77%

    Morgen, 27 August, Dienstag

    Zeit Temperatur Niederschläge Wind Luftdruck Luftfeuchtigkeit
    00:00 +16°C° 0 mm 3 m/S 753 mmHg 78%
    01:00 +16°C° 0 mm 3 m/S 753 mmHg 78%
    02:00 +16°C° 0 mm 3 m/S 752 mmHg 78%
    03:00 +14°C° 0 mm 4 m/S 752 mmHg 78%
    04:00 +15°C° 0 mm 4 m/S 752 mmHg 79%
    05:00 +15°C° 0 mm 4 m/S 751 mmHg 79%
    06:00 +15°C° 0 mm 5 m/S 751 mmHg 80%
    07:00 +16°C° 0 mm 5 m/S 750 mmHg 79%
    08:00 +17°C° 0 mm 5 m/S 750 mmHg 78%
    09:00 +19°C° 0 mm 5 m/S 750 mmHg 77%
    10:00 +20°C° 0.5 mm 5 m/S 750 mmHg 74%
    11:00 +20°C° 0.5 mm 5 m/S 749 mmHg 71%
    12:00 +21°C° 0.5 mm 5 m/S 749 mmHg 68%
    13:00 +22°C° 0.1 mm 6 m/S 749 mmHg 66%
    14:00 +22°C° 0.1 mm 6 m/S 749 mmHg 63%
    15:00 +22°C° 0.1 mm 6 m/S 749 mmHg 60%
    16:00 +22°C° 0 mm 5 m/S 749 mmHg 62%
    17:00 +21°C° 0 mm 4 m/S 749 mmHg 64%
    18:00 +20°C° 0 mm 4 m/S 749 mmHg 67%
    19:00 +19°C° 0 mm 4 m/S 750 mmHg 70%
    20:00 +18°C° 0 mm 4 m/S 750 mmHg 73%
    21:00 +15°C° 0 mm 4 m/S 750 mmHg 76%
    22:00 +14°C° 0 mm 4 m/S 751 mmHg 79%
    23:00 +13°C° 0 mm 3 m/S 751 mmHg 82%

    übermorgen, 28 August, Mittwoch

    Zeit Temperatur Niederschläge Wind Luftdruck Luftfeuchtigkeit
    00:00 +12°C° 0 mm 3 m/S 751 mmHg 86%
    01:00 +12°C° 0 mm 3 m/S 751 mmHg 85%
    02:00 +11°C° 0 mm 3 m/S 752 mmHg 85%
    03:00 +11°C° 0 mm 4 m/S 752 mmHg 85%
    04:00 +10°C° 0 mm 4 m/S 752 mmHg 86%
    05:00 +10°C° 0 mm 4 m/S 752 mmHg 87%
    06:00 +10°C° 0 mm 4 m/S 753 mmHg 88%
    07:00 +10°C° 0 mm 5 m/S 753 mmHg 80%
    08:00 +12°C° 0 mm 5 m/S 753 mmHg 73%
    09:00 +13°C° 0 mm 6 m/S 753 mmHg 65%
    10:00 +13°C° 0 mm 6 m/S 753 mmHg 61%
    11:00 +14°C° 0 mm 6 m/S 753 mmHg 57%
    12:00 +15°C° 0 mm 7 m/S 753 mmHg 54%
    13:00 +15°C° 0 mm 6 m/S 753 mmHg 52%
    14:00 +15°C° 0 mm 6 m/S 753 mmHg 50%
    15:00 +15°C° 0 mm 6 m/S 753 mmHg 49%
    16:00 +15°C° 0 mm 6 m/S 754 mmHg 52%
    17:00 +14°C° 0 mm 5 m/S 754 mmHg 55%
    18:00 +14°C° 0 mm 4 m/S 754 mmHg 59%
    19:00 +12°C° 0 mm 4 m/S 754 mmHg 63%
    20:00 +11°C° 0 mm 3 m/S 755 mmHg 68%
    21:00 +10°C° 0 mm 3 m/S 755 mmHg 72%
    22:00 +9°C° 0 mm 3 m/S 755 mmHg 75%
    23:00 +9°C° 0 mm 3 m/S 755 mmHg 77%

    29 August, Donnerstag

    Zeit Temperatur Niederschläge Wind Luftdruck Luftfeuchtigkeit
    00:00 +8°C° 0 mm 3 m/S 755 mmHg 80%
    01:00 +8°C° 0 mm 2 m/S 756 mmHg 82%
    02:00 +8°C° 0 mm 2 m/S 756 mmHg 84%
    03:00 +7°C° 0 mm 2 m/S 756 mmHg 86%
    04:00 +7°C° 0 mm 2 m/S 756 mmHg 87%
    05:00 +7°C° 0 mm 2 m/S 756 mmHg 88%
    06:00 +7°C° 0 mm 2 m/S 756 mmHg 89%
    07:00 +8°C° 0 mm 3 m/S 756 mmHg 82%
    08:00 +10°C° 0 mm 3 m/S 756 mmHg 74%
    09:00 +12°C° 0 mm 3 m/S 756 mmHg 67%
    10:00 +13°C° 0 mm 3 m/S 756 mmHg 61%
    11:00 +14°C° 0 mm 3 m/S 756 mmHg 55%
    12:00 +17°C° 0 mm 3 m/S 756 mmHg 49%
    13:00 +17°C° 0 mm 3 m/S 756 mmHg 51%
    14:00 +17°C° 0 mm 3 m/S 755 mmHg 52%
    15:00 +18°C° 0 mm 3 m/S 755 mmHg 53%
    16:00 +18°C° 0 mm 3 m/S 755 mmHg 57%
    17:00 +17°C° 0 mm 2 m/S 755 mmHg 62%
    18:00 +17°C° 0 mm 2 m/S 754 mmHg 67%
    19:00 +16°C° 0 mm 2 m/S 754 mmHg 71%
    20:00 +15°C° 0 mm 2 m/S 754 mmHg 75%
    21:00 +14°C° 0 mm 2 m/S 754 mmHg 79%
    22:00 +13°C° 0 mm 2 m/S 754 mmHg 81%
    23:00 +13°C° 0 mm 2 m/S 753 mmHg 83%

    30 August, Freitag

    Zeit Temperatur Niederschläge Wind Luftdruck Luftfeuchtigkeit
    00:00 +12°C° 0 mm 3 m/S 753 mmHg 84%
    01:00 +12°C° 0 mm 3 m/S 753 mmHg 85%
    02:00 +12°C° 0 mm 3 m/S 753 mmHg 86%
    03:00 +11°C° 0 mm 3 m/S 753 mmHg 87%
    04:00 +11°C° 0 mm 3 m/S 752 mmHg 87%
    05:00 +11°C° 0 mm 4 m/S 752 mmHg 87%
    06:00 +11°C° 0 mm 4 m/S 752 mmHg 88%
    07:00 +13°C° 0 mm 5 m/S 752 mmHg 82%
    08:00 +15°C° 0 mm 5 m/S 752 mmHg 76%
    09:00 +16°C° 0 mm 6 m/S 752 mmHg 70%
    10:00 +19°C° 0 mm 6 m/S 752 mmHg 67%
    11:00 +20°C° 0 mm 6 m/S 752 mmHg 64%
    12:00 +21°C° 0 mm 6 m/S 752 mmHg 62%
    13:00 +21°C° 0.2 mm 5 m/S 752 mmHg 64%
    14:00 +20°C° 0.2 mm 5 m/S 752 mmHg 67%
    15:00 +20°C° 0.2 mm 5 m/S 752 mmHg 70%
    16:00 +19°C° 0.1 mm 4 m/S 752 mmHg 72%
    17:00 +18°C° 0.1 mm 3 m/S 752 mmHg 74%
    18:00 +18°C° 0.1 mm 3 m/S 752 mmHg 76%
    19:00 +16°C° 0 mm 3 m/S 752 mmHg 78%
    20:00 +15°C° 0 mm 2 m/S 752 mmHg 79%
    21:00 +13°C° 0 mm 2 m/S 753 mmHg 81%
    22:00 +13°C° 0 mm 2 m/S 753 mmHg 79%
    23:00 +12°C° 0 mm 2 m/S 753 mmHg 78%

    31 August, Samstag

    Zeit Temperatur Niederschläge Wind Luftdruck Luftfeuchtigkeit
    00:00 +11°C° 0 mm 1 m/S 753 mmHg 76%
    01:00 +11°C° 0 mm 1 m/S 753 mmHg 77%
    02:00 +10°C° 0 mm 2 m/S 753 mmHg 77%
    03:00 +10°C° 0 mm 2 m/S 753 mmHg 78%
    04:00 +10°C° 0 mm 2 m/S 753 mmHg 79%
    05:00 +10°C° 0 mm 2 m/S 753 mmHg 80%
    06:00 +9°C° 0 mm 2 m/S 753 mmHg 81%
    07:00 +12°C° 0 mm 2 m/S 752 mmHg 79%
    08:00 +14°C° 0 mm 2 m/S 752 mmHg 77%
    09:00 +16°C° 0 mm 2 m/S 752 mmHg 74%
    10:00 +18°C° 0 mm 2 m/S 752 mmHg 71%
    11:00 +19°C° 0 mm 2 m/S 752 mmHg 68%
    12:00 +21°C° 0 mm 2 m/S 752 mmHg 65%
    13:00 +21°C° 0.1 mm 2 m/S 752 mmHg 61%
    14:00 +22°C° 0.1 mm 3 m/S 751 mmHg 58%
    15:00 +24°C° 0.1 mm 3 m/S 751 mmHg 54%
    16:00 +22°C° 0 mm 3 m/S 751 mmHg 58%
    17:00 +22°C° 0 mm 3 m/S 750 mmHg 62%
    18:00 +21°C° 0 mm 2 m/S 750 mmHg 66%
    19:00 +20°C° 0 mm 2 m/S 750 mmHg 70%
    20:00 +18°C° 0 mm 2 m/S 750 mmHg 75%
    21:00 +17°C° 0 mm 2 m/S 750 mmHg 79%
    22:00 +16°C° 0 mm 2 m/S 750 mmHg 79%
    23:00 +16°C° 0 mm 2 m/S 750 mmHg 79%
    Mehr zeigen